Simultaneous Nadir Overpasses (SNOs) Predictions

Prediction of SNOs between LANDSAT-8 and NOAA-19 Satellite Orbit:

Table of predicted SNOs for the next 14.0 days since TLE Epoch: 12/24/2022
Index Date (LANDSAT-8) Time (LANDSAT-8) Lat,Lon (LANDSAT-8) SZA (LANDSAT-8 ) Date (NOAA-19) Time (NOAA-19) Lat,Lon (NOAA-19) SZA (NOAA-19 ) Distance(km) Time Diff (sec)
1 12/25/2022 23:05:11 80.90,-129.63 105.93 12/25/2022 23:04:28 80.91,-129.61 105.92 1.55 43
2 12/25/2022 23:54:38 -80.89, 37.98 74.08 12/25/2022 23:55:32 -80.91, 38.02 74.05 1.51 54
3 12/28/2022 05:28:22 80.89, 134.56 105.81 12/28/2022 05:28:12 80.91, 134.72 105.83 3.20 10
4 12/30/2022 11:02:06 -80.91,-128.72 74.33 12/30/2022 11:01:03 -80.91,-128.75 74.35 0.70 63
5 12/30/2022 11:51:32 80.91, 38.94 105.68 12/30/2022 11:51:56 80.91, 39.01 105.69 1.32 24
6 01/01/2023 17:25:16 -80.91, 135.51 74.52 01/01/2023 17:24:47 -80.91, 135.48 74.53 0.54 29
7 01/01/2023 18:14:42 80.91, -56.85 105.48 01/01/2023 18:15:40 80.90, -56.75 105.51 1.86 58
8 01/03/2023 23:48:26 -80.90, 39.58 74.77 01/03/2023 23:48:31 -80.91, 39.65 74.75 1.67 5
9 01/06/2023 05:22:08 80.90, 136.15 104.96 01/06/2023 05:21:11 80.91, 136.15 104.96 1.64 57



Historial Predications of SNOs between LANDSAT-8 and NOAA-19
